2025-197C

Last updated on Mon Oct 06 2025 00:02:05 GMT+0000 (Coordinated Universal Time)

1 65490U 25197C 25278.52534953 .00007609 00000+0 34135-3 0 9998 2 65490 97.4107 103.8678 0015272 179.4638 180.6617 15.21378417 4554

Satellite not in orbit

2025-197C